Flag for Australia Weather past 2 weeks in Hobart, Tasmania, Australia

Now
50 °F

Passing clouds.


Feels Like: 45 °F
Forecast: 45 / 56 °F
Wind: 15 mph from Southwest

Location: Hobart Airport

Current Time: Apr 26, 2015 at 11:41:43 PM

Latest Report: Apr 26, 2015 at 11:00 PM


Visibility: N/A

Pressure: 29.98 "Hg

Humidity: 62%

Dew point: 37 °F

Location of HobartLocation

Historic Weather in Hobart — Graph

°F

Hobart temperature yesterday

Maximum temperature yesterday: 55 °F (at 12:00 AM)
Minimum temperature yesterday: 50 °F (at 6:00 PM)
Average temperature yesterday: 53 °F

Past Weeks' High & Low Weather Summary

 TemperatureHumidityPressure
High77 °F (Apr 15, 2:00 PM)100% (Apr 14, 1:00 AM)30.60 "Hg (Apr 14, 1:00 AM)
Low39 °F (Apr 14, 1:00 AM)23% (Apr 17, 3:30 PM)29.56 "Hg (Apr 18, 1:00 PM)
Average54 °F67%30.10 "Hg
* Reported Apr 11 10:00 PM — Apr 26 10:00 PM, Hobart, Weather by CustomWeather, © 2015

Note: Actual official high and low records may vary slightly from our data, if they occured in-between our weather recording intervals... More about our weather records

Advertising

Hobart weather history for previous 24 hours

 ConditionsComfort  
Time TempWeatherWind HumidityBarometerVisibility
10:00 PM
Sun, Apr 26
50 °FPassing clouds.10 mph62%29.98 "HgN/A
9:30 PM50 °FPassing clouds.13 mph62%29.98 "HgN/A
9:00 PM50 °FPassing clouds.14 mph62%29.95 "HgN/A
8:30 PM52 °FPassing clouds.12 mph58%29.95 "HgN/A
8:00 PM52 °FPassing clouds.8 mph67%29.95 "HgN/A
7:30 PM50 °FPassing clouds.6 mph76%29.95 "HgN/A
7:00 PM50 °FPassing clouds.6 mph76%29.92 "HgN/A
6:30 PM50 °FScattered showers. Passing clouds.12 mph76%29.92 "HgN/A
6:00 PM54 °FSprinkles. Passing clouds.10 mph63%29.92 "HgN/A
5:30 PM54 °FScattered showers. Passing clouds.12 mph63%29.89 "HgN/A
5:00 PM55 °FScattered showers. Passing clouds.13 mph55%29.89 "HgN/A
4:30 PM55 °FScattered showers. Passing clouds.10 mph55%29.86 "HgN/A
4:00 PM57 °FScattered clouds.14 mph48%29.86 "HgN/A
3:30 PM57 °FBroken clouds.15 mph48%29.86 "HgN/A
3:00 PM57 °FBroken clouds.14 mph48%29.86 "HgN/A
2:30 PM57 °FScattered clouds.13 mph44%29.86 "HgN/A
2:00 PM57 °FScattered clouds.9 mph48%29.86 "HgN/A
1:30 PM59 °FPartly sunny.10 mph45%29.86 "HgN/A
1:00 PM57 °FPartly sunny.9 mph48%29.86 "HgN/A
12:30 PM57 °FPartly sunny.13 mph48%29.86 "HgN/A
12:00 PM57 °FScattered clouds.10 mph44%29.86 "HgN/A
11:30 AM55 °FScattered clouds.7 mph47%29.89 "HgN/A
11:00 AM55 °FScattered clouds.8 mph47%29.89 "HgN/A
10:30 AM52 °FPartly sunny.7 mph58%29.92 "HgN/A
10:00 AM52 °FPartly sunny.6 mph58%29.92 "HgN/A
9:30 AM50 °FPartly sunny.8 mph67%29.92 "HgN/A
9:00 AM48 °FPartly sunny.8 mph71%29.92 "HgN/A
8:30 AM48 °FPartly sunny.7 mph76%29.92 "HgN/A
8:00 AM46 °FPartly sunny.3 mph82%29.92 "HgN/A
7:00 AM46 °FPartly sunny.8 mph71%29.92 "HgN/A
6:30 AM45 °FScattered clouds.6 mph81%29.92 "HgN/A
6:00 AM45 °FScattered clouds.5 mph87%29.92 "HgN/A
5:30 AM45 °FPassing clouds.5 mph93%29.89 "HgN/A
5:00 AM46 °FPassing clouds.6 mph87%29.89 "HgN/A
4:30 AM48 °FPassing clouds.6 mph82%29.89 "HgN/A
4:00 AM48 °FPassing clouds.6 mph82%29.89 "HgN/A
3:30 AM48 °FPassing clouds.6 mph82%29.92 "HgN/A
3:00 AM48 °FPassing clouds.5 mph82%29.92 "HgN/A
2:30 AM50 °FOvercast.7 mph82%29.92 "HgN/A
2:00 AM50 °FPassing clouds.6 mph76%29.92 "HgN/A
1:30 AM50 °FMostly cloudy.8 mph76%29.92 "HgN/A
1:00 AM50 °FPassing clouds.7 mph71%29.92 "HgN/A
12:30 AM50 °FMostly cloudy.8 mph76%29.92 "HgN/A
12:00 AM50 °FPassing clouds.6 mph76%29.92 "HgN/A
11:30 PM
Sat, Apr 25
50 °FPassing clouds.7 mph76%29.92 "HgN/A
11:00 PM50 °FPassing clouds.7 mph76%29.92 "HgN/A
Weather by CustomWeather, © 2015

See weather overviewHow to use our weather pages